Cecil Field, FL

10:42 PM EDT on April 29, 2017 (GMT -0400)
Cecil

Weather History for KVQQ - October, 2011

Change the Weather History Date:

Monday, October 17, 2011

  Actual Average (KNIP) Record (KNIP)
Temperature  
Mean Temperature 67 °F -  
Max Temperature 84 °F 77 °F 86 °F (2008)
Min Temperature 50 °F 63 °F 51 °F (2001)
Cooling Degree Days 2    
Growing Degree Days 17 (Base 50)    
Moisture  
Dew Point 60 °F    
Average Humidity 91    
Maximum Humidity 100    
Minimum Humidity 51    
Precipitation  
Precipitation 0.77 in - - ()
Sea Level Pressure  
Sea Level Pressure 29.99 in    
Wind  
Wind Speed 1 mph (SE)    
Max Wind Speed 10 mph    
Max Gust Speed -    
Visibility 10 miles    
Events      
Averages and records for this station are not official NWS values.
T = Trace of Precipitation, MM = Missing Value Source: NWS Daily Summary

Daily Weather History Graph

Daily Weather History Graph

Search for Another Location

Airport or City:

Trip Planner

Search our weather history database for the weather conditions in past years. The results will help you decide how hot, cold, wet, or windy it might be!

Date:

Astronomy

Oct. 17, 2011 Rise Set
Actual Time 7:30 AM EDT 6:54 PM EDT
Civil Twilight 7:06 AM EDT 7:18 PM EDT
Nautical Twilight 6:38 AM EDT 7:46 PM EDT
Astronomical Twilight 6:10 AM EDT 8:14 PM EDT
Moon 10:50 PM EDT (10/17) 12:18 PM EDT (10/17)
Length of Visible Light 12h 12m
Length of Day
11h 23m
Waning Gibbous, 74% of the Moon is Illuminated
Oct 17
Waning Gibbous
Oct 19
Last Quarter
Oct 26
New
Nov 2
First Quarter
Nov 10
Full

Hourly Weather History & Observations

Time (EDT) Temp. Heat Index Dew Point Humidity Pressure Visibility Wind Dir Wind Speed Gust Speed Precip Events Conditions
12:15 AM 55.4 °F - 55.4 °F 100% 30.07 in 10.0 mi Calm Calm - 0.07 in   Clear
12:35 AM 55.4 °F - 55.4 °F 100% 30.06 in 10.0 mi Calm Calm - 0.07 in   Clear
12:55 AM 55.4 °F - 55.4 °F 100% 30.06 in 10.0 mi Calm Calm - 0.07 in   Clear
1:15 AM 55.4 °F - 55.4 °F 100% 30.05 in 10.0 mi Calm Calm - 0.07 in   Clear
1:55 AM 55.4 °F - 55.4 °F 100% 30.05 in 10.0 mi Calm Calm - 0.07 in   Clear
2:15 AM 55.4 °F - 55.4 °F 100% 30.05 in 10.0 mi Calm Calm - 0.07 in   Clear
2:35 AM 53.6 °F - 53.6 °F 100% 30.04 in 10.0 mi Calm Calm - 0.07 in   Clear
2:55 AM 53.6 °F - 53.6 °F 100% 30.04 in 8.0 mi Calm Calm - 0.07 in   Clear
3:15 AM 53.6 °F - 53.6 °F 100% 30.03 in 10.0 mi Calm Calm - 0.07 in   Clear
3:35 AM 53.6 °F - 53.6 °F 100% 30.03 in 10.0 mi Calm Calm - 0.07 in   Clear
4:15 AM 53.6 °F - 53.6 °F 100% 30.02 in 10.0 mi Calm Calm - 0.07 in   Clear
4:35 AM 53.6 °F - 53.6 °F 100% 30.02 in 10.0 mi Calm Calm - 0.07 in   Clear
4:55 AM 53.6 °F - 53.6 °F 100% 30.01 in 10.0 mi Calm Calm - 0.07 in   Clear
5:15 AM 51.8 °F - 51.8 °F 100% 30.02 in 10.0 mi Calm Calm - 0.07 in   Clear
5:35 AM 53.6 °F - 53.6 °F 100% 30.02 in 9.0 mi Calm Calm - 0.07 in   Clear
5:55 AM 51.8 °F - 51.8 °F 100% 30.01 in 10.0 mi Calm Calm - 0.07 in   Clear
6:15 AM 51.8 °F - 51.8 °F 100% 30.02 in 10.0 mi Calm Calm - 0.07 in   Clear
6:35 AM 51.8 °F - 51.8 °F 100% 30.02 in 10.0 mi Calm Calm - 0.07 in   Clear
6:50 AM 51.8 °F - 51.8 °F 100% 30.02 in 10.0 mi Calm Calm - N/A   Clear
7:50 AM 50.0 °F - 50.0 °F 100% 30.03 in 10.0 mi Calm Calm - N/A   Clear
8:50 AM 55.4 °F - 55.4 °F 100% 30.04 in 10.0 mi Calm Calm - N/A   Clear
9:50 AM 66.2 °F - 62.6 °F 88% 30.06 in 10.0 mi Calm Calm - N/A   Clear
10:50 AM 75.2 °F - 66.2 °F 73% 30.05 in 10.0 mi Calm Calm - N/A   Clear
11:50 AM 80.6 °F 83.2 °F 68.0 °F 65% 30.03 in 10.0 mi SSE 5.8 mph - N/A   Clear
1:50 PM 84.2 °F 86.6 °F 66.2 °F 55% 29.96 in 10.0 mi SSE 6.9 mph - N/A   Partly Cloudy
2:50 PM 84.2 °F 85.6 °F 64.4 °F 51% 29.93 in 10.0 mi ESE 4.6 mph - N/A   Partly Cloudy
3:50 PM 84.2 °F 85.6 °F 64.4 °F 51% 29.92 in 10.0 mi ESE 5.8 mph - N/A   Partly Cloudy
4:50 PM 84.2 °F 85.6 °F 64.4 °F 51% 29.90 in 10.0 mi SE 8.1 mph - N/A   Scattered Clouds
5:50 PM 82.4 °F 85.4 °F 68.0 °F 62% 29.91 in 10.0 mi ESE 10.4 mph - N/A   Partly Cloudy
6:50 PM 77.0 °F - 69.8 °F 78% 29.91 in 10.0 mi ESE 6.9 mph - N/A   Scattered Clouds
7:50 PM 73.4 °F - 68.0 °F 83% 29.92 in 10.0 mi ESE 5.8 mph - N/A   Clear
8:55 PM 69.8 °F - 68.0 °F 94% 29.92 in 10.0 mi Calm Calm - 0.07 in   Clear
9:15 PM 68.0 °F - 66.2 °F 94% 29.92 in 10.0 mi Calm Calm - 0.07 in   Clear
9:35 PM 68.0 °F - 68.0 °F 100% 29.92 in 10.0 mi Calm Calm - 0.07 in   Clear
9:55 PM 68.0 °F - 68.0 °F 100% 29.92 in 10.0 mi Calm Calm - 0.07 in   Clear
10:15 PM 66.2 °F - 66.2 °F 100% 29.92 in 10.0 mi Calm Calm - 0.07 in   Clear
10:35 PM 66.2 °F - 66.2 °F 100% 29.92 in 10.0 mi Calm Calm - 0.07 in   Clear
11:15 PM 66.2 °F - 66.2 °F 100% 29.91 in 10.0 mi Calm Calm - 0.07 in   Clear
11:35 PM 64.4 °F - 64.4 °F 100% 29.91 in 5.0 mi Calm Calm - 0.07 in   Clear
11:55 PM 64.4 °F - 64.4 °F 100% 29.90 in 5.0 mi Calm Calm - 0.07 in   Clear